KBUR

Bob Hope Airport

Airport
ICAO code
KBUR
IATA Code
BUR
Summary
ICAO Region
NAM
ICAO Territory
Location

Burbank, California

Serving
Los Angeles
Elevation
778 ft
Coordinates
34° 12' 2" N , 118° 21' 30" W
KCC
Airport RE
Engineered Materials Arresting System
Metar
Observation
KBUR 271553Z 00000KT 10SM CLR 09/00 A3008 RMK AO2 SLP180 T00890000 $
Station
Burbank, Burbank-Glendale-Pasadena Airport
Date/Time
2022-11-27 15:53:00
Wind direction
Wind speed
00 kts
Lowest cloud amount
n/a
Temperature
8.9°C
Dew point
0°C
Humidity
53%
Weather condition
n/a

Bob Hope Airport, is a public airport located 5 km northwest of the central business district of Burbank, a city in Los Angeles County, California, United States.

Climatology

Mediterranean climate or Dry-Summer Subtropical climate(Köppen climate classification Csa)

Airport map

Aerial View

Airport accidents

SKYbrary Partners:

Safety knowledge contributed by: